Temperature
15 14 14 13 13 13 13 12 12 12 12 11 11 11 11 11 11 11 11 11 11 11 11 11 12 12 12 12 12 12 12 12 12 13 13 14 14 14 15 15 15 15 16
15 14 14 14 13 13 13 13 12 12 12 11 11 11 11 11 11 11 11 11 11 11 11 11 11 11 12 12 12 12 12 12 12 12 13 13 13 14 14 14 15 15 15
15 15 15 14 14 14 13 13 13 12 12 12 12 12 11 11 11 11 11 11 11 11 11 11 11 11 11 11 11 11 11 12 12 12 12 13 13 13 14 14 14 15 15
16 15 15 15 15 14 14 14 13 13 13 12 12 12 12 11 11 11 11 11 11 11 11 11 11 11 11 11 11 11 11 11 11 11 12 12 12 13 13 13 14 14 14
16 16 16 15 15 15 14 14 14 13 13 13 13 12 12 12 12 11 11 11 11 11 11 11 11 11 11 11 11 11 11 11 11 11 11 12 12 12 12 13 13 13 14
16 16 16 16 16 15 15 15 14 14 14 13 13 13 12 12 12 12 12 11 11 11 11 11 11 11 11 11 11 11 11 11 11 11 11 11 12 12 12 12 12 12 13
17 17 16 16 16 16 15 15 15 14 14 14 13 13 13 13 12 12 12 12 12 11 11 11 11 11 11 11 11 11 11 11 11 11 11 11 11 11 11 12 12 12 12
17 17 17 17 16 16 16 15 15 15 14 14 14 13 13 13 13 12 12 12 12 12 11 11 11 11 11 11 11 11 11 11 11 11 11 11 11 11 11 11 11 11 12
17 17 17 17 17 16 16 16 15 15 15 14 14 14 14 13 13 13 12 12 12 12 12 11 11 11 11 11 11 11 11 11 11 11 11 11 11 11 11 11 11 11 11
17 17 17 17 16 16 16 16 15 15 15 14 14 14 14 14 13 13 13 12 12 12 12 12 11 11 11 11 11 11 11 11 11 11 11 11 11 11 11 11 11 11 11
17 17 17 16 16 16 16 15 15 15 14 14 14 14 14 14 14 13 13 13 13 12 12 12 11 11 11 11 11 11 11 11 11 11 11 11 11 11 11 11 11 11 11
17 17 16 16 16 15 15 15 14 14 14 14 14 14 14 14 14 13 13 13 13 12 12 12 12 11 11 11 11 11 11 11 11 11 11 11 11 11 11 11 11 11 11
17 16 16 16 15 15 14 14 13 13 13 13 13 13 13 13 13 13 13 13 13 12 12 12 12 11 11 11 11 11 11 11 11 11 11 11 11 11 11 11 11 11 11
16 16 15 15 14 14 13 13 12 12 12 12 12 12 12 12 13 13 13 12 12 12 12 12 11 11 11 11 11 11 10 10 10 10 10 11 11 11 11 11 11 11 11
16 15 15 14 13 13 12 11 11 11 11 11 11 11 11 12 11 12 12 12 12 12 12 11 11 11 11 11 10 10 10 10 10 10 10 10 10 10 10 10 10 10 10
15 15 14 13 12 11 10 10 9 9 9 9 10 10 10 10 10 11 11 11 11 11 11 11 11 10 10 10 10 10 10 10 10 10 10 10 10 10 10 10 10 10 10
14 14 13 12 11 10 10 9 9 9 8 9 9 9 9 9 9 10 10 10 10 10 10 10 9 9 9 9 9 9 9 9 9 9 9 9 9 9 9 9 10 10 10
13 13 12 11 10 10 9 9 8 8 8 8 8 8 8 8 8 9 9 9 9 9 9 8 8 8 8 8 8 8 8 9 9 9 9 9 9 9 9 9 9 9 9
12 11 11 10 9 9 8 8 8 8 7 7 7 7 7 7 7 8 8 8 8 7 7 7 7 7 7 7 7 7 7 7 8 8 8 8 8 8 8 8 8 9 9
11 10 10 9 8 8 8 7 7 7 7 7 7 6 6 7 7 7 7 6 6 6 6 6 6 6 6 6 6 6 6 6 6 6 7 7 7 7 7 7 7 7 8
10 9 9 8 8 7 7 7 7 6 6 6 6 6 5 6 5 5 5 5 5 5 5 5 5 5 4 4 5 5 5 5 5 5 5 5 5 6 6 6 6 7 7
9 9 8 8 7 7 6 6 6 6 6 5 5 5 5 5 5 4 4 4 4 4 4 4 4 3 3 3 3 3 3 3 3 4 4 4 4 4 5 5 5 5 6
8 8 7 7 7 6 6 6 6 5 5 5 5 5 4 4 4 4 4 4 3 3 3 3 3 3 3 3 3 2 2 2 2 2 2 2 3 3 3 3 4 4 5
8 7 7 7 6 6 6 5 5 5 5 4 4 4 4 4 4 3 3 3 3 3 3 3 2 2 2 2 2 2 2 2 2 2 2 2 2 2 2 2 2 3 3
7 7 6 6 6 6 5 5 5 5 4 4 4 4 4 3 3 3 3 3 3 2 2 2 2 2 2 2 2 2 1 1 1 1 1 1 1 1 1 1 2 2 2
7 6 6 6 5 5 5 5 4 4 4 4 4 3 3 3 3 3 2 2 2 2 2 2 2 2 1 1 1 1 1 1 1 1 1 0 0 1 1 1 1 1 1
Wind_Speed
6 5 5 4 4 3 3 3 3 2 2 2 1 2 2 2 2 2 2 3 3 4 4 3 4 3 3 2 1 1 2 3 4 4 3 3 3 4 5 6 7 8 9
5 5 5 4 3 3 4 4 3 2 2 2 1 1 2 2 2 2 2 3 3 4 4 4 5 4 4 2 2 2 2 3 3 4 3 3 4 4 5 5 5 6 7
5 5 5 4 4 5 5 4 3 2 2 2 1 2 3 3 2 2 2 2 3 3 4 4 4 4 4 3 3 2 2 2 3 3 4 3 3 3 3 4 5 4 5
5 5 6 6 6 5 5 4 4 3 3 3 3 3 4 4 3 3 3 3 3 4 4 4 4 4 4 4 3 3 3 2 2 3 3 3 3 3 3 3 4 3 4
6 6 7 6 5 5 5 5 4 4 4 4 4 4 4 4 4 4 4 3 4 5 5 4 5 5 5 3 3 3 2 2 2 3 3 3 3 3 3 2 4 4 4
7 8 6 5 5 6 6 5 5 5 5 4 5 5 5 5 7 7 5 4 4 4 5 5 6 5 6 6 7 5 3 3 3 3 3 4 5 4 4 3 3 3 4
7 7 6 5 6 6 6 5 6 6 5 5 6 5 6 8 10 9 8 4 4 4 4 5 4 4 6 4 6 7 6 6 5 4 6 6 5 4 4 5 5 5 6
6 6 5 5 6 5 5 6 6 5 5 6 7 6 7 9 10 10 9 4 4 5 5 5 5 6 5 5 4 5 6 6 6 5 6 7 7 7 6 6 6 7 6
5 5 5 5 5 5 6 6 5 4 6 6 6 6 7 9 10 10 8 3 4 6 5 5 5 6 8 7 5 6 7 6 7 8 9 10 12 13 9 6 6 6 6
5 4 3 3 4 5 5 5 3 4 5 5 6 6 7 8 10 10 7 3 4 5 5 5 7 7 8 8 4 5 8 8 7 8 7 8 8 8 9 7 6 7 5
3 2 1 1 2 3 2 2 2 3 3 4 5 5 5 7 9 10 8 4 5 5 5 4 4 7 8 8 6 5 9 9 7 7 7 7 6 5 5 5 6 6 7
4 3 2 2 1 1 0 1 1 2 2 4 4 5 4 5 6 7 8 7 7 5 6 5 4 6 7 8 6 8 11 10 5 6 6 6 6 6 5 5 6 7 8
6 4 3 3 3 3 3 2 2 2 2 3 3 4 5 4 5 7 7 7 6 5 5 5 5 5 6 5 7 10 8 4 4 5 6 6 5 5 5 5 5 5 6
7 5 4 4 4 5 4 3 3 3 3 3 4 4 5 5 5 5 4 3 3 2 2 2 3 4 3 5 6 5 4 4 4 5 6 6 5 5 5 4 4 5 5
7 6 5 5 5 4 4 4 4 4 3 3 3 3 4 5 7 8 3 2 1 0 2 3 3 4 5 5 5 5 4 4 4 4 5 6 6 6 6 4 4 4 4
7 6 4 4 4 4 4 5 8 7 11 12 11 7 4 7 9 10 9 8 7 6 5 4 4 4 4 5 6 6 5 5 5 5 5 6 6 6 7 5 4 5 7
8 7 5 5 4 4 4 4 4 6 9 11 13 14 12 13 13 13 12 12 12 10 7 5 4 4 4 5 5 5 5 6 6 6 6 6 6 6 6 6 6 6 7
8 8 7 5 5 4 4 4 3 3 4 4 7 12 13 13 13 13 11 9 8 8 5 5 5 5 5 5 5 5 5 6 6 6 6 7 6 6 7 7 6 7 7
8 6 6 5 5 4 4 4 3 3 3 2 3 6 9 9 10 12 9 6 5 5 4 4 4 4 4 5 5 5 5 5 6 6 7 8 8 8 8 8 8 9 8
7 12 9 6 5 4 4 4 3 2 2 2 2 3 4 4 4 5 5 4 3 3 3 3 3 4 4 4 4 4 4 5 5 5 6 7 7 7 9 10 9 9 8
7 8 11 7 5 4 4 3 3 2 1 1 1 2 3 2 2 2 3 3 2 2 3 3 3 4 4 4 4 4 5 5 5 5 6 6 7 7 8 8 9 10 10
7 6 6 6 5 4 4 3 3 2 1 1 2 3 4 2 2 3 3 3 3 3 3 3 4 4 4 4 4 5 5 6 6 6 6 6 7 7 8 8 9 9 10
8 7 6 5 4 5 4 3 2 2 1 2 2 2 3 3 3 3 4 4 4 5 4 4 5 5 5 5 5 5 6 7 7 7 7 8 8 8 8 9 11 12 11
8 7 7 5 4 4 3 3 2 2 2 2 3 3 3 4 4 5 5 5 5 5 5 5 6 8 10 8 8 9 9 10 10 8 9 10 10 9 9 9 10 12 12
7 7 6 6 5 4 4 3 2 2 2 3 3 3 3 4 4 5 5 5 6 7 8 7 6 7 10 12 12 12 16 18 18 14 9 9 11 12 12 12 12 12 12
7 7 6 5 5 4 4 3 3 3 3 3 3 3 4 4 5 5 6 6 6 7 7 7 9 11 13 13 15 18 20 20 20 20 14 10 12 13 13 13 15 14 14
Wind_Direction
234 229 238 246 243 240 246 262 273 289 306 314 328 342 350 356 8 22 7 5 11 359 356 354 341 332 332 324 313 269 235 219 248 274 271 284 285 290 300 291 274 259 255
226 223 235 246 245 242 251 263 265 274 289 282 299 310 312 327 335 347 341 353 351 345 342 341 333 337 335 322 307 277 250 232 234 267 281 286 277 282 283 284 277 269 257
214 218 233 241 238 242 251 259 256 257 272 280 277 278 287 297 299 300 297 307 314 314 317 319 316 325 323 316 306 291 272 259 233 256 279 277 283 290 294 287 278 271 269
206 214 229 236 235 240 246 248 247 246 254 264 263 267 274 282 277 278 282 292 303 307 304 301 299 290 283 291 296 287 276 273 260 264 275 280 279 289 289 290 295 281 279
202 217 231 235 235 238 241 242 245 247 250 251 261 273 276 272 261 256 263 275 292 307 311 309 303 302 298 288 292 284 269 266 266 269 279 281 284 292 288 283 288 298 285
208 226 233 230 233 237 240 240 243 250 256 254 256 262 272 269 278 276 257 252 268 284 299 307 308 310 320 330 330 325 299 264 261 258 269 278 282 274 271 274 283 298 294
215 229 229 226 234 238 238 237 241 246 249 256 259 256 263 270 277 281 277 252 248 260 272 287 302 311 324 314 320 328 323 309 283 259 264 269 273 265 270 278 273 268 266
217 231 231 227 237 242 236 242 246 243 244 251 258 256 261 271 275 276 277 263 251 257 256 260 269 287 297 300 301 309 303 295 285 273 254 262 264 265 256 264 274 277 273
214 230 233 223 231 236 241 248 246 244 250 249 254 255 258 271 276 274 271 246 259 267 262 254 254 268 288 300 298 300 303 297 286 272 270 275 279 280 275 268 266 270 277
217 230 231 213 218 232 244 252 249 243 256 263 263 256 252 264 277 275 265 223 254 270 274 262 260 264 281 293 284 288 296 297 304 308 301 297 289 283 279 256 253 262 268
194 177 158 192 212 231 254 263 270 271 278 279 280 280 268 266 279 279 263 217 230 255 268 270 262 271 280 288 288 270 279 291 293 295 297 297 294 284 274 259 245 249 257
132 117 95 68 58 73 50 338 333 318 310 307 307 308 299 288 284 288 280 251 229 228 251 258 264 280 287 295 296 292 298 304 293 292 291 291 291 290 284 275 263 252 250
116 105 89 72 57 50 57 34 20 15 355 331 328 321 319 322 315 309 300 286 259 233 246 258 277 294 306 309 310 315 317 307 297 291 288 285 279 279 288 290 283 273 267
117 106 91 81 62 49 50 51 51 29 14 360 350 334 326 332 335 332 319 316 308 273 270 310 330 342 339 323 326 330 322 297 291 287 290 290 291 291 290 288 288 296 293
115 107 94 84 80 64 57 54 54 44 51 40 2 346 351 347 341 343 347 353 354 45 79 54 35 17 7 357 345 333 326 326 319 299 296 301 303 300 297 294 282 283 280
122 115 107 98 85 78 77 61 47 55 52 53 48 43 23 18 10 26 41 48 56 78 81 56 37 22 4 352 345 339 334 334 328 320 313 307 305 304 303 301 290 287 288
131 129 117 109 101 92 85 88 65 25 31 38 37 38 40 36 37 39 47 55 56 63 63 51 34 16 1 351 343 339 334 331 327 326 324 321 317 312 308 306 304 298 294
128 130 126 118 113 106 100 93 88 75 39 5 9 24 31 37 39 40 43 54 48 44 46 39 25 8 360 356 348 343 340 343 347 344 340 336 329 322 316 311 307 302 302
131 130 126 122 116 111 106 98 88 79 66 24 3 8 18 25 33 34 41 53 52 39 30 23 13 3 357 353 349 346 350 355 353 352 350 345 340 334 324 316 310 303 298
139 142 137 129 121 115 111 107 99 87 68 40 17 354 353 20 30 19 26 32 35 22 7 358 352 346 343 340 341 342 344 347 347 346 342 338 335 332 328 325 321 313 304
137 144 141 131 131 133 131 131 133 127 115 29 323 326 2 26 5 354 351 350 345 332 324 322 321 319 316 315 317 322 327 327 326 326 327 327 327 327 325 322 321 320 315
138 138 140 142 142 143 146 151 154 161 192 257 294 320 344 350 320 314 310 307 302 294 289 290 292 288 285 287 292 298 303 303 304 307 310 312 315 318 319 320 321 319 317
140 140 140 143 146 150 146 155 167 186 221 256 275 291 305 300 294 292 291 293 295 295 293 287 286 288 285 279 274 272 278 282 284 286 292 297 300 303 306 309 312 315 315
145 147 149 151 153 158 165 175 187 208 233 257 273 279 282 284 287 288 288 289 291 291 287 284 281 282 285 287 287 281 275 274 277 276 276 281 288 291 292 294 297 300 303
147 150 154 160 164 169 175 184 201 225 247 259 268 275 282 285 287 289 290 289 291 290 290 287 282 283 283 283 284 284 282 281 282 281 275 274 277 279 281 283 285 289 290
151 154 157 161 168 175 181 193 212 229 244 258 264 269 276 281 285 288 291 292 293 291 291 289 286 287 288 290 287 286 285 285 285 283 280 274 272 272 273 275 278 278 282
Height
1508 1508 1507 1506 1506 1505 1504 1503 1502 1501 1499 1498 1497 1496 1494 1493 1492 1490 1489 1488 1487 1486 1485 1485 1484 1484 1484 1483 1483 1484 1484 1484 1483 1483 1483 1483 1483 1483 1484 1484 1485 1486 1487
1507 1506 1506 1505 1505 1504 1503 1502 1501 1499 1498 1497 1496 1495 1493 1492 1491 1489 1488 1487 1486 1485 1484 1483 1483 1482 1482 1481 1481 1481 1481 1481 1481 1480 1480 1480 1479 1479 1479 1479 1480 1480 1481
1505 1505 1505 1504 1504 1503 1502 1501 1500 1499 1497 1496 1495 1494 1493 1491 1490 1488 1487 1486 1485 1484 1483 1482 1481 1481 1480 1480 1479 1479 1479 1478 1478 1477 1476 1476 1476 1475 1475 1475 1475 1475 1476
1503 1504 1503 1503 1503 1502 1501 1500 1499 1498 1497 1496 1494 1493 1492 1491 1489 1488 1486 1485 1484 1483 1482 1481 1480 1479 1479 1478 1478 1477 1476 1476 1475 1474 1473 1473 1472 1472 1471 1470 1470 1470 1471
1501 1502 1502 1502 1501 1501 1500 1499 1498 1497 1496 1495 1494 1493 1491 1490 1489 1487 1486 1484 1483 1482 1481 1480 1479 1478 1477 1476 1476 1475 1474 1473 1472 1472 1471 1470 1469 1468 1468 1467 1466 1465 1466
1499 1500 1500 1500 1500 1499 1499 1498 1497 1496 1495 1494 1493 1492 1491 1489 1488 1486 1485 1484 1482 1481 1480 1479 1478 1477 1476 1475 1474 1473 1472 1471 1470 1469 1468 1467 1466 1465 1465 1464 1463 1462 1461
1496 1497 1498 1498 1498 1498 1497 1496 1495 1495 1494 1493 1492 1491 1489 1488 1487 1485 1484 1482 1481 1480 1479 1478 1477 1475 1474 1473 1472 1471 1470 1469 1468 1467 1465 1464 1463 1462 1461 1460 1459 1458 1457
1494 1494 1495 1495 1495 1495 1494 1494 1493 1492 1491 1491 1490 1489 1488 1486 1485 1484 1482 1481 1480 1479 1477 1476 1475 1473 1472 1471 1470 1469 1468 1467 1465 1464 1462 1461 1460 1459 1458 1456 1455 1454 1452
1490 1491 1492 1492 1492 1491 1491 1491 1490 1489 1488 1487 1487 1486 1485 1484 1483 1481 1480 1479 1477 1476 1475 1474 1473 1471 1470 1468 1467 1466 1465 1464 1462 1460 1459 1457 1456 1455 1454 1452 1451 1450 1447
1487 1488 1488 1488 1488 1488 1487 1487 1486 1485 1484 1484 1483 1482 1481 1480 1480 1478 1477 1476 1475 1474 1473 1472 1470 1469 1468 1466 1464 1462 1461 1460 1458 1457 1456 1454 1453 1451 1450 1448 1447 1445 1444
1484 1485 1485 1485 1485 1484 1483 1483 1482 1481 1480 1479 1478 1477 1477 1476 1475 1474 1473 1472 1471 1470 1469 1469 1468 1466 1465 1463 1462 1460 1458 1456 1454 1453 1451 1450 1449 1448 1446 1444 1443 1441 1440
1481 1481 1481 1481 1481 1480 1479 1478 1477 1476 1475 1474 1473 1473 1472 1471 1471 1470 1469 1468 1467 1466 1466 1465 1464 1463 1462 1460 1459 1457 1455 1453 1451 1449 1448 1447 1445 1444 1442 1440 1439 1437 1436
1477 1478 1478 1477 1477 1476 1475 1474 1473 1472 1471 1470 1469 1468 1467 1467 1466 1465 1464 1464 1463 1462 1462 1461 1460 1459 1458 1457 1455 1453 1452 1450 1448 1446 1444 1443 1442 1440 1438 1436 1434 1433 1431
1474 1474 1474 1474 1473 1472 1471 1470 1469 1468 1467 1466 1465 1464 1463 1462 1461 1461 1460 1459 1459 1458 1457 1457 1456 1455 1454 1453 1452 1450 1448 1446 1444 1443 1441 1439 1438 1436 1435 1433 1430 1428 1426
1470 1471 1471 1471 1470 1469 1469 1468 1467 1465 1465 1463 1462 1461 1460 1459 1458 1457 1456 1455 1454 1454 1453 1453 1452 1451 1450 1449 1448 1447 1445 1443 1441 1440 1438 1436 1434 1432 1431 1429 1427 1424 1423
1467 1467 1468 1468 1467 1467 1467 1466 1465 1464 1463 1462 1461 1459 1458 1457 1456 1455 1453 1452 1451 1450 1450 1449 1448 1447 1446 1445 1444 1443 1441 1440 1438 1436 1434 1432 1430 1429 1427 1425 1423 1421 1418
1464 1464 1465 1465 1465 1465 1465 1465 1464 1464 1463 1461 1460 1458 1457 1456 1454 1453 1451 1450 1449 1448 1447 1446 1445 1444 1443 1442 1440 1439 1438 1436 1434 1433 1431 1429 1427 1425 1423 1421 1419 1417 1414
1460 1461 1462 1463 1463 1464 1464 1464 1463 1463 1462 1461 1459 1458 1456 1455 1453 1451 1450 1449 1447 1446 1445 1444 1443 1442 1440 1439 1438 1436 1434 1432 1431 1429 1427 1425 1423 1421 1419 1417 1415 1413 1410
1457 1459 1460 1461 1461 1462 1462 1462 1462 1462 1461 1460 1459 1457 1456 1454 1453 1451 1449 1448 1446 1445 1444 1443 1441 1440 1438 1437 1435 1433 1431 1429 1427 1425 1423 1421 1419 1416 1414 1412 1410 1408 1406
1454 1456 1458 1459 1460 1460 1461 1461 1461 1461 1460 1459 1458 1457 1455 1454 1452 1450 1449 1447 1446 1444 1443 1441 1440 1438 1436 1434 1432 1430 1428 1426 1423 1421 1419 1416 1414 1412 1410 1407 1405 1403 1400
1451 1453 1455 1457 1458 1459 1459 1459 1460 1459 1459 1458 1457 1456 1455 1453 1451 1450 1448 1447 1445 1443 1442 1440 1438 1436 1434 1432 1430 1427 1425 1422 1420 1417 1414 1412 1410 1407 1405 1402 1400 1398 1395
1449 1451 1453 1454 1456 1457 1457 1458 1458 1458 1457 1457 1456 1455 1454 1452 1451 1449 1447 1445 1444 1442 1440 1438 1435 1433 1431 1429 1426 1423 1421 1418 1416 1413 1410 1407 1405 1402 1399 1397 1394 1392 1389
1446 1448 1450 1452 1453 1454 1455 1456 1456 1456 1456 1455 1454 1453 1452 1450 1449 1447 1445 1443 1441 1439 1437 1434 1432 1429 1427 1425 1422 1420 1417 1414 1411 1409 1405 1402 1400 1397 1394 1391 1388 1385 1383
1443 1445 1447 1449 1451 1452 1453 1453 1454 1453 1453 1452 1451 1450 1449 1447 1445 1444 1442 1439 1437 1435 1432 1430 1427 1424 1422 1419 1417 1414 1411 1409 1406 1403 1400 1397 1394 1391 1388 1385 1382 1379 1377
1440 1443 1445 1446 1448 1449 1450 1450 1451 1450 1450 1449 1448 1447 1445 1443 1441 1439 1437 1434 1432 1429 1426 1424 1421 1418 1415 1413 1410 1407 1404 1402 1399 1396 1393 1389 1386 1383 1380 1378 1375 1372 1369
1437 1440 1442 1444 1445 1446 1447 1447 1447 1447 1446 1445 1444 1443 1441 1439 1436 1434 1431 1428 1426 1423 1420 1417 1414 1411 1408 1405 1402 1399 1396 1393 1390 1387 1384 1380 1377 1374 1371 1368 1366 1363 1361